Weather History for Doylestown, PA

Change the Weather History Date:

Monday, May 6, 2013

  Actual Average (KTTN) Record (KTTN)
Temperature  
Mean Temperature 56 °F 58 °F  
Max Temperature 69 °F 69 °F 91 °F (1949)
Min Temperature 42 °F 47 °F 36 °F (1891)
Degree Days  
Heating Degree Days 10 8  
Month to date heating degree days 51  
Since 1 July heating degree days 5019  
Cooling Degree Days 0 1  
Month to date cooling degree days 6  
Year to date cooling degree days 14  
Growing Degree Days 6 (Base 50)    
Moisture  
Dew Point 46 °F    
Average Humidity 81    
Maximum Humidity 100    
Minimum Humidity 54    
Precipitation  
Precipitation 0.00 in 0.12 in 1.30 in (1991)
Month to date precipitation 0.60  
Year to date precipitation 13.75  
Sea Level Pressure  
Sea Level Pressure 30.20 in    
Wind  
Wind Speed 2 mph (NE)    
Max Wind Speed 7 mph    
Max Gust Speed -    
Visibility 10 miles    
Events      
T = Trace of Precipitation, MM = Missing Value Source: NWS Daily Summary

Daily Weather History Graph

Daily Weather History Graph

Search for Another Location

Airport:

Trip Planner

Search our weather history database for the weather conditions in past years. The results will help you decide how hot, cold, wet, or windy it might be!

Date:

Astronomy

May. 06, 2013 Rise Set
Actual Time 5:53 AM EDT 8:01 PM EDT
Civil Twilight 5:23 AM EDT 8:31 PM EDT
Nautical Twilight 4:46 AM EDT 9:08 PM EDT
Astronomical Twilight 4:06 AM EDT 9:48 PM EDT
Moon 3:54 AM EDT (5/6) 4:58 PM EDT (5/6)
Length of Visible Light 15h 07m
Length of Day
14h 07m
Waning Crescent, 11% of the Moon is Illuminated
May 6
Waning Crescent
May 9
New
May 18
First Quarter
May 25
Full
May 31
Last Quarter

Hourly Weather History & Observations

Time (EDT) Temp. Windchill Dew Point Humidity Pressure Visibility Wind Dir Wind Speed Gust Speed Precip Events Conditions
12:54 AM 43.0 °F - 39.0 °F 86% 30.22 in 10.0 mi Calm Calm - N/A   Clear
1:03 AM 42.8 °F - 39.2 °F 87% 30.22 in 10.0 mi Calm Calm - N/A   Partly Cloudy
1:17 AM 42.8 °F 41.1 °F 39.2 °F 87% 30.21 in 10.0 mi NE 3.5 mph - N/A   Mostly Cloudy
1:31 AM 42.8 °F - 39.2 °F 87% 30.21 in 10.0 mi Calm Calm - N/A   Scattered Clouds
1:38 AM 42.8 °F - 39.2 °F 87% 30.21 in 10.0 mi Calm Calm - N/A   Mostly Cloudy
1:54 AM 43.0 °F - 39.9 °F 89% 30.21 in 10.0 mi Calm Calm - N/A   Overcast
2:46 AM 42.8 °F 39.3 °F 41.0 °F 93% 30.21 in 10.0 mi NE 5.8 mph - N/A   Overcast
2:54 AM 43.0 °F - 41.0 °F 93% 30.21 in 9.0 mi Calm Calm - N/A   Overcast
3:54 AM 43.0 °F 40.3 °F 42.1 °F 97% 30.20 in 5.0 mi NE 4.6 mph - N/A   Overcast
4:02 AM 42.8 °F 40.1 °F 42.8 °F 100% 30.20 in 6.0 mi NNE 4.6 mph - N/A   Overcast
4:54 AM 44.1 °F 42.5 °F 43.0 °F 96% 30.20 in 10.0 mi NNE 3.5 mph - N/A   Overcast
5:04 AM 44.6 °F - 42.8 °F 93% 30.20 in 10.0 mi Calm Calm - N/A   Overcast
5:54 AM 45.0 °F - 43.0 °F 93% 30.22 in 9.0 mi Calm Calm - N/A   Overcast
6:54 AM 46.0 °F - 44.1 °F 93% 30.23 in 7.0 mi Calm Calm - N/A   Overcast
7:54 AM 46.9 °F - 45.0 °F 93% 30.25 in 7.0 mi Calm Calm - N/A   Overcast
8:17 AM 48.2 °F - 44.6 °F 87% 30.24 in 8.0 mi Calm Calm - N/A   Overcast
8:54 AM 50.0 °F - 45.0 °F 83% 30.25 in 10.0 mi NE 4.6 mph - N/A   Overcast
9:04 AM 51.8 °F - 46.4 °F 82% 30.24 in 10.0 mi Variable 4.6 mph - N/A   Overcast
9:54 AM 52.0 °F - 46.0 °F 80% 30.25 in 10.0 mi Variable 3.5 mph - N/A   Overcast
10:54 AM 54.0 °F - 48.0 °F 80% 30.25 in 10.0 mi Variable 3.5 mph - N/A   Overcast
11:31 AM 57.2 °F - 48.2 °F 72% 30.23 in 10.0 mi Variable 3.5 mph - N/A   Overcast
11:54 AM 57.9 °F - 48.0 °F 70% 30.23 in 10.0 mi Variable 3.5 mph - N/A   Overcast
12:54 PM 61.0 °F - 48.9 °F 64% 30.21 in 10.0 mi NNE 6.9 mph - N/A   Overcast
1:52 PM 62.6 °F - 50.0 °F 63% 30.19 in 10.0 mi Variable 4.6 mph - N/A   Scattered Clouds
1:54 PM 63.0 °F - 50.0 °F 63% 30.19 in 10.0 mi Variable 3.5 mph - N/A   Partly Cloudy
2:54 PM 66.0 °F - 51.1 °F 59% 30.17 in 10.0 mi Variable 3.5 mph - N/A   Clear
3:54 PM 66.9 °F - 52.0 °F 59% 30.14 in 10.0 mi Variable 4.6 mph - N/A   Clear
4:54 PM 69.1 °F - 52.0 °F 54% 30.13 in 10.0 mi Variable 4.6 mph - N/A   Overcast
5:54 PM 66.0 °F - 51.1 °F 59% 30.13 in 10.0 mi SSE 3.5 mph - N/A   Partly Cloudy
6:54 PM 64.0 °F - 52.0 °F 65% 30.13 in 10.0 mi Variable 4.6 mph - N/A   Clear
7:30 PM 60.8 °F - 51.8 °F 72% 30.14 in 10.0 mi Calm Calm - N/A   Mostly Cloudy
7:54 PM 59.0 °F - 52.0 °F 78% 30.15 in 10.0 mi Calm Calm - N/A   Scattered Clouds
8:54 PM 57.0 °F - 51.1 °F 81% 30.16 in 10.0 mi Calm Calm - N/A   Clear
9:54 PM 55.0 °F - 50.0 °F 83% 30.16 in 10.0 mi Calm Calm - N/A   Clear
10:47 PM 53.6 °F - 50.0 °F 88% 30.16 in 10.0 mi Calm Calm - N/A   Mostly Cloudy
10:54 PM 54.0 °F - 50.0 °F 86% 30.16 in 10.0 mi Calm Calm - N/A   Scattered Clouds
11:54 PM 52.0 °F - 48.9 °F 89% 30.15 in 10.0 mi Variable 3.5 mph - N/A   Clear